Minneapolis, MN

9:29 AM CST on December 07, 2016 (GMT -0600)
Crystal

Weather History for KMIC - March, 2013

Change the Weather History Date:

Sunday, March 17, 2013

  Actual Average Record
Temperature  
Mean Temperature 16 °F -  
Max Temperature 27 °F 37 °F 81 °F (2012)
Min Temperature 5 °F 20 °F -2 °F (1993)
Degree Days  
Heating Degree Days 49    
Moisture  
Dew Point 5 °F    
Average Humidity 57    
Maximum Humidity 70    
Minimum Humidity 44    
Precipitation  
Precipitation 0.00 in - - ()
Sea Level Pressure  
Sea Level Pressure 30.14 in    
Wind  
Wind Speed 8 mph (ESE)    
Max Wind Speed 14 mph    
Max Gust Speed 22 mph    
Visibility 10 miles    
Events      
Averages and records for this station are not official NWS values.
T = Trace of Precipitation, MM = Missing Value Source: NWS Daily Summary

Daily Weather History Graph

Daily Weather History Graph

Search for Another Location

Airport or City:

Trip Planner

Search our weather history database for the weather conditions in past years. The results will help you decide how hot, cold, wet, or windy it might be!

Date:

Astronomy

Mar. 17, 2013 Rise Set
Actual Time 7:21 AM CDT 7:22 PM CDT
Civil Twilight 6:52 AM CDT 7:51 PM CDT
Nautical Twilight 6:18 AM CDT 8:26 PM CDT
Astronomical Twilight 5:43 AM CDT 9:01 PM CDT
Moon 10:20 AM CDT (3/17) 12:45 AM CDT (3/17)
Length of Visible Light 12h 59m
Length of Day
12h 00m
Waxing Crescent, 31% of the Moon is Illuminated
Mar 17
Waxing Crescent
Mar 19
First Quarter
Mar 27
Full
Apr 2
Last Quarter
Apr 10
New

Hourly Weather History & Observations

Time (CDT) Temp. Windchill Dew Point Humidity Pressure Visibility Wind Dir Wind Speed Gust Speed Precip Events Conditions
12:53 AM 10.9 °F 1.4 °F -0.0 °F 61% 30.30 in 10.0 mi NNW 5.8 mph - N/A   Clear
1:53 AM 9.0 °F -0.9 °F -0.9 °F 64% 30.30 in 10.0 mi NNW 5.8 mph - N/A   Clear
2:53 AM 9.0 °F 0.6 °F -2.0 °F 61% 30.31 in 10.0 mi North 4.6 mph - N/A   Clear
3:53 AM 8.1 °F -0.5 °F -2.0 °F 64% 30.29 in 10.0 mi NNE 4.6 mph - N/A   Clear
4:53 AM 7.0 °F -1.7 °F -2.9 °F 64% 30.28 in 10.0 mi NE 4.6 mph - N/A   Clear
5:53 AM 6.1 °F -0.9 °F -2.9 °F 67% 30.29 in 10.0 mi NE 3.5 mph - N/A   Clear
6:53 AM 5.0 °F -2.1 °F -2.9 °F 70% 30.29 in 10.0 mi NE 3.5 mph - N/A   Clear
7:53 AM 5.0 °F -5.6 °F -2.9 °F 70% 30.27 in 10.0 mi ENE 5.8 mph - N/A   Clear
8:53 AM 8.1 °F -2.0 °F -2.0 °F 64% 30.26 in 10.0 mi ESE 5.8 mph - N/A   Clear
9:53 AM 12.0 °F -1.3 °F -0.9 °F 56% 30.26 in 10.0 mi ESE 10.4 mph - N/A   Clear
10:53 AM 15.1 °F 1.8 °F 1.0 °F 54% 30.24 in 10.0 mi SE 11.5 mph - N/A   Clear
11:53 AM 18.0 °F 4.2 °F 3.0 °F 52% 30.22 in 10.0 mi SE 13.8 mph 18.4 mph N/A   Mostly Cloudy
12:53 PM 19.9 °F 6.7 °F 5.0 °F 52% 30.19 in 10.0 mi SSE 13.8 mph 21.9 mph N/A   Overcast
1:53 PM 23.0 °F 10.6 °F 7.0 °F 50% 30.15 in 10.0 mi SSE 13.8 mph 19.6 mph N/A   Overcast
2:53 PM 24.1 °F 12.5 °F 7.0 °F 48% 30.10 in 10.0 mi SE 12.7 mph 20.7 mph N/A   Overcast
3:53 PM 26.1 °F 14.5 °F 7.0 °F 44% 30.05 in 10.0 mi ESE 13.8 mph - N/A   Scattered Clouds
4:53 PM 25.0 °F 14.2 °F 8.1 °F 49% 30.04 in 10.0 mi East 11.5 mph - N/A   Overcast
5:53 PM 26.1 °F 14.5 °F 9.0 °F 49% 30.03 in 10.0 mi SE 13.8 mph 18.4 mph N/A   Clear
6:53 PM 26.1 °F 16.8 °F 9.0 °F 49% 29.99 in 10.0 mi ESE 9.2 mph 17.3 mph N/A   Overcast
7:53 PM 26.1 °F 16.2 °F 10.0 °F 51% 29.98 in 10.0 mi ESE 10.4 mph - N/A   Overcast
8:53 PM 26.1 °F 19.4 °F 12.0 °F 55% 29.96 in 10.0 mi ESE 5.8 mph - N/A   Overcast
9:53 PM 26.1 °F 15.6 °F 12.0 °F 55% 29.94 in 10.0 mi ESE 11.5 mph - N/A   Overcast
10:51 PM 26.6 °F 18.2 °F 14.0 °F 59% 29.88 in 10.0 mi SE 8.1 mph - N/A   Overcast
10:53 PM 27.0 °F 18.7 °F 14.0 °F 58% 29.93 in 10.0 mi SSE 8.1 mph - N/A   Overcast
11:53 PM 26.1 °F 16.8 °F 16.0 °F 66% 29.91 in 10.0 mi SSE 9.2 mph - N/A   Overcast